Контролен ТХ Measurements

Back to Overview

Timestamp Temperature Humidity
3/31/2020 9:29:20 AM 22,6 C 35.0%
3/31/2020 9:22:17 AM 22,5 C 34.0%
3/31/2020 9:15:14 AM 22,7 C 34.0%
3/31/2020 9:08:18 AM 22,8 C 34.0%
3/31/2020 9:01:08 AM 22,8 C 33.0%
3/31/2020 8:54:05 AM 23,1 C 34.0%
3/31/2020 8:47:03 AM 23,2 C 33.0%
3/31/2020 8:40:01 AM 23,3 C 33.0%
3/31/2020 8:32:58 AM 23,4 C 33.0%
3/31/2020 8:25:55 AM 23,4 C 33.0%
3/31/2020 8:18:53 AM 23,5 C 33.0%
3/31/2020 8:11:50 AM 23,6 C 33.0%
3/31/2020 8:04:47 AM 23,7 C 33.0%
3/31/2020 7:57:44 AM 23,7 C 33.0%
3/31/2020 7:50:41 AM 23,7 C 33.0%
3/31/2020 7:43:38 AM 23,7 C 33.0%
3/31/2020 7:36:36 AM 23,7 C 33.0%
3/31/2020 7:29:32 AM 23,7 C 33.0%
3/31/2020 7:22:29 AM 23,7 C 33.0%
3/31/2020 7:15:27 AM 23,7 C 33.0%
3/31/2020 7:08:23 AM 23,7 C 33.0%
3/31/2020 7:01:20 AM 23,7 C 33.0%
3/31/2020 6:54:17 AM 23,8 C 33.0%
3/31/2020 6:47:13 AM 23,8 C 33.0%
3/31/2020 6:40:11 AM 23,8 C 33.0%
3/31/2020 6:33:09 AM 23,7 C 33.0%
3/31/2020 6:26:06 AM 23,7 C 33.0%
3/31/2020 6:19:10 AM 23,6 C 34.0%
3/31/2020 6:12:01 AM 23,5 C 34.0%
3/31/2020 6:04:58 AM 23,4 C 34.0%
3/31/2020 5:57:57 AM 23,4 C 34.0%
3/31/2020 5:50:55 AM 23,3 C 34.0%
3/31/2020 5:43:51 AM 23,2 C 34.0%
3/31/2020 5:36:50 AM 23,2 C 34.0%
3/31/2020 5:29:48 AM 23,2 C 34.0%
3/31/2020 5:22:46 AM 23,3 C 34.0%
3/31/2020 5:15:42 AM 23,3 C 34.0%
3/31/2020 5:08:40 AM 23,3 C 34.0%
3/31/2020 5:01:36 AM 23,4 C 34.0%
3/31/2020 4:54:34 AM 23,4 C 34.0%
3/31/2020 4:47:30 AM 23,5 C 34.0%
3/31/2020 4:40:27 AM 23,5 C 34.0%
3/31/2020 4:33:25 AM 23,6 C 34.0%
3/31/2020 4:26:23 AM 23,7 C 34.0%
3/31/2020 4:19:21 AM 23,8 C 34.0%
3/31/2020 4:12:18 AM 23,8 C 34.0%
3/31/2020 4:05:15 AM 23,8 C 34.0%
3/31/2020 3:58:12 AM 23,9 C 33.0%
3/31/2020 3:51:10 AM 24,0 C 33.0%
3/31/2020 3:44:07 AM 24,0 C 33.0%
3/31/2020 3:37:04 AM 24,1 C 33.0%
3/31/2020 3:30:00 AM 24,3 C 33.0%
3/31/2020 3:22:58 AM 24,3 C 33.0%
3/31/2020 3:15:55 AM 24,5 C 33.0%
3/31/2020 3:08:53 AM 24,6 C 33.0%
3/31/2020 3:01:50 AM 24,7 C 33.0%
3/31/2020 2:54:47 AM 24,8 C 33.0%
3/31/2020 2:47:44 AM 24,8 C 33.0%
3/31/2020 2:40:41 AM 24,9 C 32.0%
3/31/2020 2:33:38 AM 24,9 C 33.0%
3/31/2020 2:26:35 AM 25,0 C 33.0%
3/31/2020 2:19:31 AM 25,1 C 33.0%
3/31/2020 2:12:27 AM 25,1 C 33.0%
3/31/2020 2:05:24 AM 25,1 C 33.0%
3/31/2020 1:58:21 AM 25,2 C 33.0%
3/31/2020 1:51:17 AM 25,2 C 33.0%
3/31/2020 1:44:15 AM 25,3 C 32.0%
3/31/2020 1:37:13 AM 25,4 C 32.0%
3/31/2020 1:30:10 AM 25,5 C 32.0%
3/31/2020 1:23:07 AM 25,6 C 32.0%
3/31/2020 1:16:04 AM 25,8 C 32.0%
3/31/2020 1:09:02 AM 25,8 C 32.0%
3/31/2020 1:02:00 AM 25,8 C 32.0%
3/31/2020 12:54:57 AM 25,9 C 32.0%
3/31/2020 12:47:54 AM 25,9 C 32.0%
3/31/2020 12:40:52 AM 25,8 C 32.0%
3/31/2020 12:33:48 AM 25,8 C 32.0%
3/31/2020 12:26:46 AM 25,8 C 32.0%
3/31/2020 12:19:43 AM 25,7 C 32.0%
3/31/2020 12:12:40 AM 25,7 C 32.0%
3/31/2020 12:05:37 AM 25,6 C 32.0%